FW4245 Weather Reports


time (UTC)temp
C
wind
direction
speed
KPH
gust
KPH
rain 1hr
cm
rain 24hr
cm
rain mn
cm
humidity
%
barometer
mb
20260505184049 27 143 4.8 19.3 0.00 0.00 0.00 43 1015.6
20260505184006 27 238 8.0 19.3 0.00 0.00 0.00 41 1015.3
20260505183548 27 221 4.8 22.5 0.00 0.00 0.00 43 1015.6
20260505183512 27 274 4.8 22.5 0.00 0.00 0.00 42 1015.3
20260505183049 27 251 8.0 27.4 0.00 0.00 0.00 40 1015.6
20260505183018 27 226 9.7 27.4 0.00 0.00 0.00 39 1015.4
20260505182549 27 229 6.4 27.4 0.00 0.00 0.00 40 1015.8
20260505182514 27 259 8.0 27.4 0.00 0.00 0.00 40 1015.3
20260505182052 27 254 9.7 22.5 0.00 0.00 0.00 41 1015.8
20260505182013 27 203 9.7 22.5 0.00 0.00 0.00 40 1015.5
20260505181546 27 254 6.4 29.0 0.00 0.00 0.00 41 1015.9
20260505181518 27 183 6.4 29.0 0.00 0.00 0.00 42 1015.5
20260505181047 27 109 11.3 29.0 0.00 0.00 0.00 42 1016.0
20260505181008 27 170 12.9 29.0 0.00 0.00 0.00 41 1015.5
20260505180546 27 208 8.0 25.7 0.00 0.00 0.00 42 1015.9
20260505180506 27 319 9.7 25.7 0.00 0.00 0.00 42 1015.5
20260505180100 27 175 8.0 25.7 0.00 0.00 0.00 43 1015.8
20260505180035 27 123 11.3 25.7 0.00 0.00 0.00 42 1015.5
20260505175545 27 230 6.4 24.1 0.00 0.00 0.00 43 1015.9
20260505175509 27 255 3.2 22.5 0.00 0.00 0.00 44 1015.5
20260505175044 26 76 8.0 22.5 0.00 0.00 0.00 43 1015.9
20260505175003 26 151 9.7 22.5 0.00 0.00 0.00 42 1015.5
20260505174553 27 279 8.0 19.3 0.00 0.00 0.00 44 1015.8
20260505174537 27 322 9.7 27.4 0.00 0.00 0.00 43 1015.5
20260505174043 27 315 8.0 27.4 0.00 0.00 0.00 43 1015.9
20260505174010 27 240 6.4 27.4 0.00 0.00 0.00 43 1015.4
20260505173544 27 177 9.7 27.4 0.00 0.00 0.00 44 1015.8
20260505173502 27 150 12.9 27.4 0.00 0.00 0.00 43 1015.6
20260505173046 27 237 8.0 19.3 0.00 0.00 0.00 45 1016.1
20260505173022 27 292 8.0 19.3 0.00 0.00 0.00 43 1015.6
20260505172542 26 226 6.4 20.9 0.00 0.00 0.00 46 1016.1
20260505172511 26 105 8.0 20.9 0.00 0.00 0.00 45 1015.8
20260505172041 26 244 8.0 20.9 0.00 0.00 0.00 43 1016.2
20260505172003 26 295 9.7 20.9 0.00 0.00 0.00 43 1015.8
20260505171544 26 245 9.7 20.9 0.00 0.00 0.00 46 1016.2
20260505171524 26 235 11.3 20.9 0.00 0.00 0.00 47 1015.8
20260505171041 26 16 9.7 20.9 0.00 0.00 0.00 46 1016.3
20260505171008 26 271 8.0 19.3 0.00 0.00 0.00 46 1015.9
20260505170540 26 240 8.0 20.9 0.00 0.00 0.00 47 1016.4
20260505170505 26 244 9.7 22.5 0.00 0.00 0.00 46 1016.0
20260505170039 26 158 8.0 22.5 0.00 0.00 0.00 47 1016.5
20260505170023 26 252 8.0 22.5 0.00 0.00 0.00 46 1016.1
20260505165536 26 279 9.7 22.5 0.00 0.00 0.00 47 1016.6
20260505165509 26 281 9.7 22.5 0.00 0.00 0.00 47 1016.1
20260505165036 26 240 9.7 22.5 0.00 0.00 0.00 47 1016.6
20260505165006 26 245 8.0 22.5 0.00 0.00 0.00 47 1016.0
20260505164540 26 297 8.0 20.9 0.00 0.00 0.00 49 1016.6
20260505164522 26 235 8.0 24.1 0.00 0.00 0.00 49 1016.1
20260505164037 26 233 8.0 24.1 0.00 0.00 0.00 50 1016.6
20260505164011 26 249 8.0 24.1 0.00 0.00 0.00 50 1016.1
20260505163534 26 264 4.8 22.5 0.00 0.00 0.00 50 1016.6
20260505163506 26 207 4.8 22.5 0.00 0.00 0.00 50 1016.1
20260505163034 26 41 4.8 22.5 0.00 0.00 0.00 51 1016.7
20260505163025 25 264 6.4 22.5 0.00 0.00 0.00 51 1016.2
20260505162533 25 278 8.0 20.9 0.00 0.00 0.00 51 1016.7
20260505162510 25 204 8.0 20.9 0.00 0.00 0.00 49 1016.1
20260505162032 25 207 8.0 20.9 0.00 0.00 0.00 50 1016.7
20260505162008 25 169 8.0 20.9 0.00 0.00 0.00 50 1016.2
20260505161531 25 235 6.4 19.3 0.00 0.00 0.00 50 1016.8
20260505161522 25 192 8.0 19.3 0.00 0.00 0.00 50 1016.3
20260505161031 25 237 6.4 19.3 0.00 0.00 0.00 51 1016.7
20260505161011 25 262 6.4 19.3 0.00 0.00 0.00 51 1016.5
20260505160530 25 267 8.0 19.3 0.00 0.00 0.00 52 1016.8
20260505160505 25 209 8.0 19.3 0.00 0.00 0.00 51 1016.5
20260505153029 24 160 8.0 25.7 0.00 0.00 0.00 54 1016.6
20260505153025 24 157 8.0 25.7 0.00 0.00 0.00 54 1016.9
20260505152525 24 62 4.8 22.5 0.00 0.00 0.00 55 1017.0
20260505152511 24 148 6.4 22.5 0.00 0.00 0.00 54 1016.6
20260505152023 23 301 6.4 22.5 0.00 0.00 0.00 56 1017.0
20260505152010 23 238 8.0 22.5 0.00 0.00 0.00 55 1016.6
20260505151526 23 255 9.7 17.7 0.00 0.00 0.00 55 1016.5
20260505151521 23 143 8.0 17.7 0.00 0.00 0.00 55 1016.9
20260505151021 23 233 6.4 17.7 0.00 0.00 0.00 57 1016.9
20260505151008 23 165 6.4 17.7 0.00 0.00 0.00 56 1016.5
20260505150520 23 237 6.4 17.7 0.00 0.00 0.00 57 1016.9
20260505150513 23 188 8.0 17.7 0.00 0.00 0.00 56 1016.6
20260505140513 21 213 9.7 29.0 0.00 0.00 0.00 62 1016.8
20260505140506 21 348 8.0 29.0 0.00 0.00 0.00 63 1017.2
20260505125012 18 273 9.7 24.1 0.00 0.00 0.00 67 1017.0
20260505124552 18 258 4.8 24.1 0.00 0.00 0.00 69 1017.3
20260505124514 18 333 8.0 24.1 0.00 0.00 0.00 68 1017.0
20260505124052 18 316 9.7 24.1 0.00 0.00 0.00 68 1017.2
20260505124007 18 267 9.7 24.1 0.00 0.00 0.00 68 1016.9
20260505123553 18 235 6.4 19.3 0.00 0.00 0.00 69 1017.2
20260505123504 18 319 6.4 19.3 0.00 0.00 0.00 68 1016.9
20260505123051 18 296 4.8 19.3 0.00 0.00 0.00 69 1017.3
20260505123015 18 195 4.8 19.3 0.00 0.00 0.00 69 1017.0
20260505122547 18 192 4.8 17.7 0.00 0.00 0.00 70 1017.3
20260505122506 18 248 4.8 17.7 0.00 0.00 0.00 70 1016.9
20260505122047 17 220 6.4 19.3 0.00 0.00 0.00 70 1017.2
20260505122003 17 245 6.4 19.3 0.00 0.00 0.00 70 1016.8
20260505121547 17 247 8.0 19.3 0.00 0.00 0.00 71 1017.0
20260505121517 17 243 8.0 19.3 0.00 0.00 0.00 71 1016.8
20260505121047 17 248 4.8 19.3 0.00 0.00 0.00 72 1017.1
20260505121007 17 105 4.8 19.3 0.00 0.00 0.00 72 1016.8
20260505120547 17 258 8.0 19.3 0.00 0.00 0.00 72 1017.2
20260505120503 17 198 8.0 19.3 0.00 0.00 0.00 72 1016.8
20260505120050 17 231 4.8 14.5 0.00 0.00 0.00 73 1017.1
20260505120018 17 252 6.4 14.5 0.00 0.00 0.00 73 1016.6
20260505115546 17 233 6.4 16.1 0.00 0.00 0.00 73 1017.1
20260505115509 16 258 6.4 16.1 0.00 0.00 0.00 73 1016.8
20260505115045 16 248 4.8 16.1 0.00 0.00 0.00 74 1017.1
20260505115004 16 252 4.8 16.1 0.00 0.00 0.00 73 1016.8
20260505114545 16 118 6.4 16.1 0.00 0.00 0.00 74 1017.2
20260505114518 16 244 8.0 16.1 0.00 0.00 0.00 73 1016.8
20260505114045 16 89 3.2 16.1 0.00 0.00 0.00 74 1017.1
20260505114010 16 264 4.8 16.1 0.00 0.00 0.00 74 1016.7
20260505113543 16 206 6.4 14.5 0.00 0.00 0.00 74 1017.1
20260505113503 16 139 8.0 14.5 0.00 0.00 0.00 74 1016.7
20260505113049 16 212 1.6 12.9 0.00 0.00 0.00 76 1017.1
20260505113024 16 162 1.6 12.9 0.00 0.00 0.00 75 1016.7
20260505112546 16 271 3.2 12.9 0.00 0.00 0.00 76 1016.9
20260505112512 16 298 4.8 12.9 0.00 0.00 0.00 76 1016.7
20260505112043 15 258 4.8 12.9 0.00 0.00 0.00 77 1017.0
20260505112004 15 177 4.8 12.9 0.00 0.00 0.00 76 1016.6
20260505111543 15 247 1.6 12.9 0.00 0.00 0.00 78 1017.0
20260505111521 15 285 3.2 12.9 0.00 0.00 0.00 77 1016.7
20260505111042 15 116 1.6 8.0 0.00 0.00 0.00 78 1016.9
20260505111011 15 238 3.2 8.0 0.00 0.00 0.00 78 1016.6
20260505110542 15 274 1.6 11.3 0.00 0.00 0.00 78 1016.8
20260505110504 15 235 1.6 11.3 0.00 0.00 0.00 78 1016.5
20260505102036 14 242 1.6 6.4 0.00 0.00 0.00 81 1016.5
20260505102008 14 165 1.6 8.0 0.00 0.00 0.00 81 1016.1
20260505101556 14 169 0.0 8.0 0.00 0.00 0.00 81 1016.4
20260505101532 14 238 0.0 8.0 0.00 0.00 0.00 80 1016.0
20260505101035 14 218 1.6 8.0 0.00 0.00 0.00 81 1016.4
20260505101010 14 243 1.6 8.0 0.00 0.00 0.00 80 1015.9
20260505100534 14 266 0.0 6.4 0.00 0.00 0.00 80 1016.3
20260505100505 14 137 1.6 6.4 0.00 0.00 0.00 80 1015.8
20260505100054 14 186 0.0 8.0 0.00 0.00 0.00 79 1016.2
20260505100028 14 134 0.0 8.0 0.00 0.00 0.00 79 1015.8
20260505095536 14 183 0.0 9.7 0.00 0.00 0.00 79 1016.2
20260505095508 14 219 1.6 9.7 0.00 0.00 0.00 78 1015.7
20260505095030 15 284 1.6 9.7 0.00 0.00 0.00 79 1016.2
20260505095008 15 266 1.6 9.7 0.00 0.00 0.00 78 1015.7
20260505094532 15 223 1.6 14.5 0.00 0.00 0.00 79 1016.1
20260505094526 15 248 1.6 14.5 0.00 0.00 0.00 78 1015.7
20260505094029 15 211 3.2 14.5 0.00 0.00 0.00 78 1016.1
20260505094010 15 254 3.2 14.5 0.00 0.00 0.00 78 1015.6
20260505093528 15 315 3.2 12.9 0.00 0.00 0.00 78 1016.0
20260505093506 15 268 3.2 11.3 0.00 0.00 0.00 78 1015.6
20260505093035 15 253 3.2 12.9 0.00 0.00 0.00 78 1015.5
20260505093028 15 275 3.2 12.9 0.00 0.00 0.00 78 1016.1
20260505092528 15 104 1.6 12.9 0.00 0.00 0.00 78 1016.1
20260505092506 15 258 1.6 12.9 0.00 0.00 0.00 77 1015.6
20260505092028 15 172 0.0 9.7 0.00 0.00 0.00 78 1016.1
20260505092009 15 207 1.6 9.7 0.00 0.00 0.00 77 1015.6
20260505091527 15 233 1.6 9.7 0.00 0.00 0.00 77 1015.9
20260505091025 15 268 3.2 16.1 0.00 0.00 0.00 77 1016.0
20260505091007 15 260 3.2 16.1 0.00 0.00 0.00 77 1015.5
20260505090531 15 228 4.8 16.1 0.00 0.00 0.00 77 1016.0
20260505090507 15 243 4.8 16.1 0.00 0.00 0.00 77 1015.5
20260505090028 15 312 4.8 11.3 0.00 0.00 0.00 77 1015.4
20260505090025 15 278 3.2 11.3 0.00 0.00 0.00 77 1015.8
20260505085525 15 211 3.2 11.3 0.00 0.00 0.00 77 1015.8
20260505085508 15 234 3.2 11.3 0.00 0.00 0.00 77 1015.4
20260505085024 15 241 3.2 9.7 0.00 0.00 0.00 77 1015.8
20260505085009 15 262 3.2 9.7 0.00 0.00 0.00 76 1015.4
20260505084529 15 262 3.2 12.9 0.00 0.00 0.00 76 1015.5
20260505084524 15 210 1.6 12.9 0.00 0.00 0.00 77 1015.8
20260505084022 15 230 3.2 12.9 0.00 0.00 0.00 76 1015.8
20260505084004 15 245 4.8 12.9 0.00 0.00 0.00 76 1015.5
20260505083524 15 143 3.2 12.9 0.00 0.00 0.00 76 1015.8
20260505083510 15 181 3.2 12.9 0.00 0.00 0.00 76 1015.5
20260505083032 15 264 1.6 8.0 0.00 0.00 0.00 76 1015.5
20260505083024 15 255 1.6 8.0 0.00 0.00 0.00 76 1015.9
20260505082521 15 207 1.6 11.3 0.00 0.00 0.00 76 1015.8
20260505082504 15 267 1.6 11.3 0.00 0.00 0.00 75 1015.5
20260505082020 15 76 3.2 11.3 0.00 0.00 0.00 75 1015.7
20260505082008 15 153 3.2 11.3 0.00 0.00 0.00 75 1015.5
20260505081536 15 131 1.6 9.7 0.00 0.00 0.00 75 1015.5
20260505081520 15 258 0.0 9.7 0.00 0.00 0.00 75 1015.8
20260505081019 15 241 1.6 11.3 0.00 0.00 0.00 75 1015.6
20260505081004 15 240 1.6 11.3 0.00 0.00 0.00 74 1015.4
20260505080518 16 260 1.6 11.3 0.00 0.00 0.00 75 1015.6
20260505080509 16 264 3.2 11.3 0.00 0.00 0.00 74 1015.4
20260505080030 16 240 3.2 11.3 0.00 0.00 0.00 74 1015.3
20260505080018 16 240 1.6 11.3 0.00 0.00 0.00 74 1015.6
20260505075518 16 230 3.2 11.3 0.00 0.00 0.00 74 1015.5
20260505075507 16 217 4.8 11.3 0.00 0.00 0.00 74 1015.3
20260505075016 16 263 1.6 9.7 0.00 0.00 0.00 74 1015.6
20260505075014 16 141 1.6 9.7 0.00 0.00 0.00 74 1015.2
20260505074530 16 257 1.6 9.7 0.00 0.00 0.00 74 1015.2
20260505074516 16 167 1.6 9.7 0.00 0.00 0.00 74 1015.6
20260505074016 16 231 1.6 11.3 0.00 0.00 0.00 74 1015.6
20260505074010 16 241 3.2 11.3 0.00 0.00 0.00 73 1015.2
20260505073514 16 224 3.2 14.5 0.00 0.00 0.00 73 1015.5
20260505073510 16 227 4.8 14.5 0.00 0.00 0.00 73 1015.2
20260505073030 16 244 4.8 14.5 0.00 0.00 0.00 73 1015.4
20260505072514 16 256 4.8 16.1 0.00 0.00 0.00 73 1015.3
20260505072512 16 261 6.4 16.1 0.00 0.00 0.00 73 1015.0
20260505072014 16 304 4.8 16.1 0.00 0.00 0.00 73 1015.3
20260505072007 16 180 4.8 16.1 0.00 0.00 0.00 73 1015.0
20260505071527 16 338 6.4 16.1 0.00 0.00 0.00 72 1015.0
20260505071513 16 7 4.8 16.1 0.00 0.00 0.00 73 1015.3
20260505071014 16 283 3.2 12.9 0.00 0.00 0.00 73 1015.3
20260505071007 16 190 3.2 12.9 0.00 0.00 0.00 72 1015.0
20260505070515 16 275 3.2 17.7 0.00 0.00 0.00 72 1015.2
20260505070511 16 167 3.2 17.7 0.00 0.00 0.00 72 1014.9
20260505070036 16 269 4.8 17.7 0.00 0.00 0.00 71 1014.9
20260505070014 16 231 3.2 17.7 0.00 0.00 0.00 72 1015.2
20260505065511 16 254 1.6 11.3 0.00 0.00 0.00 72 1015.2
20260505065009 16 242 3.2 11.3 0.00 0.00 0.00 71 1015.2
20260505065003 16 272 4.8 11.3 0.00 0.00 0.00 71 1015.0
20260505064520 16 324 3.2 9.7 0.00 0.00 0.00 70 1015.0
20260505064515 16 185 1.6 9.7 0.00 0.00 0.00 71 1015.3
20260505064009 16 230 3.2 9.7 0.00 0.00 0.00 71 1015.4
20260505064002 16 176 4.8 9.7 0.00 0.00 0.00 70 1015.0
20260505063508 16 176 1.6 16.1 0.00 0.00 0.00 70 1015.5
20260505063504 16 294 1.6 16.1 0.00 0.00 0.00 70 1015.1
20260505063019 16 198 8.0 16.1 0.00 0.00 0.00 69 1015.1
20260505063007 16 249 6.4 16.1 0.00 0.00 0.00 70 1015.5
20260505062507 16 247 1.6 16.1 0.00 0.00 0.00 70 1015.5
20260505062010 17 266 4.8 16.1 0.00 0.00 0.00 69 1015.5
20260505062008 17 227 6.4 16.1 0.00 0.00 0.00 69 1015.2
20260505061519 17 242 3.2 14.5 0.00 0.00 0.00 69 1015.5
20260505061005 17 259 1.6 12.9 0.00 0.00 0.00 69 1015.5
20260505061003 17 262 1.6 12.9 0.00 0.00 0.00 68 1015.2
20260505060506 17 252 4.8 17.7 0.00 0.00 0.00 68 1015.5
20260505060504 17 174 6.4 17.7 0.00 0.00 0.00 68 1015.1
20260505060021 17 224 4.8 17.7 0.00 0.00 0.00 68 1015.1
20260505060004 17 225 4.8 17.7 0.00 0.00 0.00 68 1015.4
20260505055503 17 259 4.8 20.9 0.00 0.00 0.00 67 1015.1
20260505055005 17 182 6.4 20.9 0.00 0.00 0.00 67 1015.2
20260505055002 17 193 6.4 20.9 0.00 0.00 0.00 68 1015.5
20260505054524 17 247 6.4 19.3 0.00 0.00 0.00 67 1015.2
20260505054502 17 244 4.8 19.3 0.00 0.00 0.00 68 1015.6
20260505054002 17 151 6.4 19.3 0.00 0.00 0.00 67 1015.3
20260505053600 17 221 4.8 14.5 0.00 0.00 0.00 68 1015.6
20260505053505 17 273 6.4 14.5 0.00 0.00 0.00 67 1015.2
20260505053100 17 266 4.8 17.7 0.00 0.00 0.00 68 1015.6
20260505053022 17 219 6.4 17.7 0.00 0.00 0.00 67 1015.2
20260505052559 17 134 8.0 19.3 0.00 0.00 0.00 67 1015.6
20260505052504 17 127 9.7 19.3 0.00 0.00 0.00 67 1015.3
20260505052058 17 256 3.2 19.3 0.00 0.00 0.00 67 1015.6
20260505052009 17 236 4.8 19.3 0.00 0.00 0.00 67 1015.2
20260505051557 17 163 4.8 16.1 0.00 0.00 0.00 67 1015.6
20260505051543 17 248 6.4 16.1 0.00 0.00 0.00 67 1015.4
20260505051057 17 275 6.4 16.1 0.00 0.00 0.00 67 1015.7
20260505051004 17 336 6.4 22.5 0.00 0.00 0.00 67 1015.4
20260505050556 17 59 3.2 22.5 0.00 0.00 0.00 67 1015.7
20260505050509 17 293 4.8 22.5 0.00 0.00 0.00 66 1015.4
20260505041552 17 327 4.8 17.7 0.00 0.00 0.00 67 1015.7
20260505041528 18 177 4.8 17.7 0.00 0.00 0.00 67 1015.4
20260505041051 17 211 4.8 17.7 0.00 0.00 0.00 67 1015.7
20260505041004 17 158 4.8 17.7 0.00 0.00 0.00 67 1015.3
20260505040550 17 240 4.8 17.7 0.00 0.00 0.00 67 1015.6
20260505040507 17 289 4.8 17.7 0.00 0.00 0.00 67 1015.3
20260505040050 17 181 4.8 17.7 0.00 0.00 0.00 67 1015.7
20260505040027 17 271 4.8 17.7 0.00 0.00 0.00 67 1015.3
20260505035549 18 237 3.2 11.3 0.00 0.00 0.00 67 1015.6
20260505035503 18 111 4.8 11.3 0.00 0.00 0.00 67 1015.2
20260505035049 18 215 3.2 19.3 0.00 0.00 0.00 67 1015.6
20260505035007 18 240 4.8 19.3 0.00 0.00 0.00 66 1015.2
20260505034551 18 218 6.4 19.3 0.00 0.00 0.00 66 1015.5
20260505034508 18 164 8.0 19.3 0.00 0.00 0.00 66 1015.3
20260505034049 18 226 4.8 16.1 0.00 0.00 0.00 66 1015.6
20260505034004 18 265 6.4 17.7 0.00 0.00 0.00 66 1015.3
20260505033549 18 195 3.2 17.7 0.00 0.00 0.00 66 1015.5
20260505033508 18 255 4.8 17.7 0.00 0.00 0.00 66 1015.2
20260505033049 18 259 6.4 17.7 0.00 0.00 0.00 66 1015.5
20260505033009 18 260 8.0 17.7 0.00 0.00 0.00 66 1015.1
20260505032548 18 95 6.4 25.7 0.00 0.00 0.00 66 1015.5
20260505032504 18 206 6.4 25.7 0.00 0.00 0.00 66 1015.2
20260505032148 18 256 6.4 25.7 0.00 0.00 0.00 66 1015.6
20260505032010 18 255 6.4 25.7 0.00 0.00 0.00 65 1015.1
20260505031552 18 221 6.4 19.3 0.00 0.00 0.00 66 1015.5
20260505031506 18 205 8.0 19.3 0.00 0.00 0.00 66 1015.1
20260505031048 18 248 3.2 20.9 0.00 0.00 0.00 66 1015.4
20260505031004 18 171 4.8 20.9 0.00 0.00 0.00 66 1015.0
20260505030552 18 281 6.4 22.5 0.00 0.00 0.00 66 1015.5
20260505030508 18 229 6.4 22.5 0.00 0.00 0.00 66 1015.1
20260505030049 18 260 4.8 22.5 0.00 0.00 0.00 66 1015.5
20260505030010 18 285 6.4 22.5 0.00 0.00 0.00 66 1015.1
20260505025549 18 157 4.8 22.5 0.00 0.00 0.00 66 1015.5
20260505025511 18 177 4.8 22.5 0.00 0.00 0.00 66 1015.1
20260505025047 18 242 6.4 22.5 0.00 0.00 0.00 67 1015.5
20260505025008 18 244 6.4 19.3 0.00 0.00 0.00 66 1015.1
20260505024552 18 230 8.0 19.3 0.00 0.00 0.00 67 1015.4
20260505024512 18 226 9.7 19.3 0.00 0.00 0.00 66 1015.0
20260505024046 18 239 9.7 19.3 0.00 0.00 0.00 67 1015.3
20260505024006 18 176 11.3 19.3 0.00 0.00 0.00 67 1015.0
20260505023546 18 228 4.8 19.3 0.00 0.00 0.00 68 1015.2
20260505023508 18 239 6.4 19.3 0.00 0.00 0.00 67 1014.9
20260505023051 18 237 8.0 19.3 0.00 0.00 0.00 68 1015.3
20260505023011 18 214 9.7 19.3 0.00 0.00 0.00 67 1014.9
20260505022546 18 204 8.0 17.7 0.00 0.00 0.00 68 1015.3
20260505022506 18 244 8.0 17.7 0.00 0.00 0.00 68 1014.9
20260505022049 18 155 6.4 19.3 0.00 0.00 0.00 68 1015.4
20260505022012 18 240 6.4 19.3 0.00 0.00 0.00 68 1015.0
20260505021546 18 232 6.4 19.3 0.00 0.00 0.00 68 1015.4
20260505021512 18 254 6.4 19.3 0.00 0.00 0.00 68 1015.1
20260505021045 18 192 6.4 12.9 0.00 0.00 0.00 68 1015.3
20260505021005 18 142 6.4 12.9 0.00 0.00 0.00 68 1015.2
20260505020545 18 252 6.4 12.9 0.00 0.00 0.00 68 1015.5
20260505020511 18 252 6.4 17.7 0.00 0.00 0.00 68 1015.1
20260505020049 18 262 3.2 17.7 0.00 0.00 0.00 68 1015.5
20260505020012 18 281 3.2 17.7 0.00 0.00 0.00 68 1015.1
20260505015545 18 268 8.0 20.9 0.00 0.00 0.00 68 1015.4
20260505015512 18 311 9.7 20.9 0.00 0.00 0.00 68 1015.1
20260505015045 18 162 4.8 20.9 0.00 0.00 0.00 68 1015.3
20260505015012 18 162 4.8 20.9 0.00 0.00 0.00 68 1014.9
20260505014551 18 232 4.8 14.5 0.00 0.00 0.00 68 1015.4
20260505014516 18 231 4.8 14.5 0.00 0.00 0.00 68 1015.1
20260505014044 18 130 4.8 12.9 0.00 0.00 0.00 68 1015.3
20260505014012 18 235 6.4 12.9 0.00 0.00 0.00 67 1014.9
20260505013544 19 145 3.2 12.9 0.00 0.00 0.00 68 1015.3
20260505013508 19 240 4.8 17.7 0.00 0.00 0.00 67 1015.0
20260505013044 19 256 3.2 17.7 0.00 0.00 0.00 67 1015.3
20260505013018 19 188 4.8 17.7 0.00 0.00 0.00 67 1014.8
20260505012545 19 153 4.8 17.7 0.00 0.00 0.00 67 1015.2
20260505012508 19 286 3.2 17.7 0.00 0.00 0.00 67 1014.8
20260505012044 19 195 6.4 17.7 0.00 0.00 0.00 67 1015.1
20260505012009 19 297 6.4 17.7 0.00 0.00 0.00 67 1014.8
20260505011547 19 241 4.8 17.7 0.00 0.00 0.00 67 1015.1
20260505011518 19 65 3.2 12.9 0.00 0.00 0.00 67 1014.6
20260505011043 19 157 1.6 14.5 0.00 0.00 0.00 67 1015.0
20260505011009 19 281 1.6 14.5 0.00 0.00 0.00 66 1014.5
20260505010544 19 57 4.8 16.1 0.00 0.00 0.00 66 1014.9
20260505010512 19 274 6.4 16.1 0.00 0.00 0.00 66 1014.4
20260505010103 19 133 4.8 16.1 0.00 0.00 0.00 66 1014.8
20260505010019 19 181 6.4 16.1 0.00 0.00 0.00 66 1014.3
20260505005547 19 188 3.2 16.1 0.00 0.00 0.00 66 1014.7
20260505005509 19 141 3.2 16.1 0.00 0.00 0.00 65 1014.3
20260505005042 20 222 4.8 16.1 0.00 0.00 0.00 66 1014.7
20260505005004 20 217 4.8 16.1 0.00 0.00 0.00 65 1014.2
20260505004543 20 158 6.4 17.7 0.00 0.00 0.00 66 1014.6
20260505004518 20 187 4.8 17.7 0.00 0.00 0.00 65 1014.2
20260505004042 20 199 3.2 17.7 0.00 0.00 0.00 65 1014.5
20260505004008 20 190 3.2 17.7 0.00 0.00 0.00 65 1014.0
20260505003542 20 162 1.6 14.5 0.00 0.00 0.00 65 1014.5
20260505003502 20 259 3.2 14.5 0.00 0.00 0.00 64 1014.0
20260505003046 20 128 6.4 16.1 0.00 0.00 0.00 64 1014.4
20260505003022 20 286 8.0 16.1 0.00 0.00 0.00 64 1014.0
20260505002545 20 250 3.2 19.3 0.00 0.00 0.00 64 1014.3
20260505002509 20 146 3.2 19.3 0.00 0.00 0.00 63 1013.9
20260505002042 20 102 4.8 25.7 0.00 0.00 0.00 64 1014.3
20260505002004 20 108 6.4 25.7 0.00 0.00 0.00 63 1013.8
20260505001542 20 152 6.4 25.7 0.00 0.00 0.00 63 1014.3
20260505001520 20 297 6.4 25.7 0.00 0.00 0.00 63 1013.9
20260505001038 20 243 3.2 14.5 0.00 0.00 0.00 63 1014.2
20260505001010 20 75 4.8 14.5 0.00 0.00 0.00 62 1013.7
20260505000538 20 166 6.4 16.1 0.00 0.00 0.00 62 1014.1
20260505000504 20 134 6.4 16.1 0.00 0.00 0.00 62 1013.8
20260505000045 21 219 6.4 16.1 0.00 0.00 0.00 62 1014.1
20260505000024 21 127 8.0 17.7 0.00 0.00 0.00 61 1013.7
20260504235538 21 278 4.8 17.7 0.00 0.00 0.00 61 1014.2
20260504235508 21 172 4.8 17.7 0.00 0.00 0.00 61 1013.7
20260504235041 21 162 6.4 17.7 0.00 0.00 0.00 61 1014.1
20260504235005 21 150 6.4 24.1 0.00 0.00 0.00 60 1013.8
20260504234537 21 228 4.8 24.1 0.00 0.00 0.00 60 1014.1
20260504234524 21 250 4.8 24.1 0.00 0.00 0.00 59 1013.6
20260504234037 21 241 8.0 24.1 0.00 0.00 0.00 59 1014.0
20260504234007 21 156 9.7 24.1 0.00 0.00 0.00 59 1013.6
20260504233537 21 141 8.0 19.3 0.00 0.00 0.00 59 1014.0
20260504233504 21 257 8.0 19.3 0.00 0.00 0.00 58 1013.6
20260504233039 21 164 4.8 20.9 0.00 0.00 0.00 58 1013.9
20260504233024 21 129 6.4 20.9 0.00 0.00 0.00 58 1013.4
20260504232537 22 240 4.8 20.9 0.00 0.00 0.00 58 1013.7
20260504232509 22 219 6.4 20.9 0.00 0.00 0.00 57 1013.4
20260504232037 22 157 6.4 19.3 0.00 0.00 0.00 57 1013.7
20260504232006 22 194 6.4 19.3 0.00 0.00 0.00 56 1013.3
20260504231543 22 252 8.0 20.9 0.00 0.00 0.00 57 1013.6
20260504231524 22 273 8.0 22.5 0.00 0.00 0.00 56 1013.2
20260504231037 22 192 6.4 22.5 0.00 0.00 0.00 56 1013.5
20260504231012 22 163 6.4 22.5 0.00 0.00 0.00 55 1013.3
20260504230536 23 279 6.4 22.5 0.00 0.00 0.00 54 1013.4
20260504230507 23 217 6.4 22.5 0.00 0.00 0.00 54 1013.3
20260504230043 23 219 8.0 20.9 0.00 0.00 0.00 53 1013.5
20260504230026 23 149 9.7 24.1 0.00 0.00 0.00 53 1013.3
20260504225538 23 195 9.7 25.7 0.00 0.00 0.00 53 1013.4
20260504225514 23 151 9.7 25.7 0.00 0.00 0.00 51 1013.2
20260504225035 24 219 8.0 25.7 0.00 0.00 0.00 50 1013.4
20260504225007 24 75 9.7 25.7 0.00 0.00 0.00 49 1013.2
20260504224535 25 190 4.8 20.9 0.00 0.00 0.00 42 1013.3
20260504224526 25 148 3.2 14.5 0.00 0.00 0.00 42 1013.1
20260504224035 25 283 6.4 17.7 0.00 0.00 0.00 39 1013.2
20260504224010 25 269 6.4 17.7 0.00 0.00 0.00 39 1013.0
20260504223539 25 217 6.4 17.7 0.00 0.00 0.00 39 1013.1
20260504223508 25 295 8.0 17.7 0.00 0.00 0.00 38 1012.9
20260504223035 25 249 4.8 17.7 0.00 0.00 0.00 39 1013.1
20260504223027 25 278 4.8 19.3 0.00 0.00 0.00 39 1012.8
20260504222535 25 266 4.8 19.3 0.00 0.00 0.00 39 1013.2
20260504222508 25 274 3.2 19.3 0.00 0.00 0.00 40 1012.9
20260504222033 25 233 8.0 25.7 0.00 0.00 0.00 39 1013.1
20260504222011 25 272 9.7 25.7 0.00 0.00 0.00 38 1012.9
20260504221545 25 258 9.7 25.7 0.00 0.00 0.00 40 1013.1
20260504221528 25 250 11.3 25.7 0.00 0.00 0.00 39 1012.9
20260504221032 25 255 9.7 19.3 0.00 0.00 0.00 39 1013.2
20260504221009 25 246 9.7 19.3 0.00 0.00 0.00 38 1012.9
20260504220532 25 195 8.0 22.5 0.00 0.00 0.00 39 1013.2
20260504220509 25 207 8.0 22.5 0.00 0.00 0.00 39 1012.9
20260504220034 25 318 8.0 24.1 0.00 0.00 0.00 39 1013.3
20260504220029 25 218 9.7 27.4 0.00 0.00 0.00 38 1012.9
20260504215532 25 216 9.7 27.4 0.00 0.00 0.00 39 1013.3
20260504215505 25 236 8.0 27.4 0.00 0.00 0.00 38 1013.0
20260504215030 25 270 8.0 25.7 0.00 0.00 0.00 38 1013.4
20260504215008 25 285 8.0 25.7 0.00 0.00 0.00 38 1012.9
20260504214531 25 265 8.0 22.5 0.00 0.00 0.00 39 1013.2
20260504214526 25 184 9.7 22.5 0.00 0.00 0.00 39 1012.9
20260504214030 25 118 8.0 19.3 0.00 0.00 0.00 39 1013.4
20260504214005 25 250 8.0 19.3 0.00 0.00 0.00 38 1013.0
20260504213530 25 288 6.4 25.7 0.00 0.00 0.00 39 1013.3
20260504213509 25 174 6.4 25.7 0.00 0.00 0.00 39 1013.0
20260504213037 25 261 9.7 25.7 0.00 0.00 0.00 39 1013.4
20260504213026 25 275 11.3 25.7 0.00 0.00 0.00 39 1013.0
20260504212528 26 269 8.0 20.9 0.00 0.00 0.00 38 1013.4
20260504212510 26 280 9.7 20.9 0.00 0.00 0.00 37 1013.0
20260504212028 26 250 4.8 16.1 0.00 0.00 0.00 38 1013.4
20260504212009 26 254 3.2 11.3 0.00 0.00 0.00 39 1013.1
20260504211534 26 277 3.2 19.3 0.00 0.00 0.00 38 1013.4
20260504211528 26 262 4.8 19.3 0.00 0.00 0.00 37 1013.0
20260504211028 25 252 8.0 22.5 0.00 0.00 0.00 39 1013.4
20260504211011 25 316 9.7 22.5 0.00 0.00 0.00 38 1013.0
20260504210528 25 308 11.3 22.5 0.00 0.00 0.00 38 1013.6
20260504210510 25 257 12.9 22.5 0.00 0.00 0.00 37 1013.2
20260504210035 26 58 8.0 25.7 0.00 0.00 0.00 38 1013.1
20260504210027 26 69 6.4 25.7 0.00 0.00 0.00 38 1013.5
20260504205527 26 287 6.4 25.7 0.00 0.00 0.00 39 1013.4
20260504205509 26 249 6.4 25.7 0.00 0.00 0.00 39 1013.1
20260504205025 26 208 4.8 19.3 0.00 0.00 0.00 40 1013.4
20260504205008 26 271 6.4 19.3 0.00 0.00 0.00 39 1013.1
20260504204530 25 274 4.8 19.3 0.00 0.00 0.00 38 1013.1
20260504204025 25 242 4.8 19.3 0.00 0.00 0.00 39 1013.5
20260504204005 25 278 4.8 19.3 0.00 0.00 0.00 39 1013.3
20260504203528 25 253 4.8 20.9 0.00 0.00 0.00 40 1013.5
20260504203513 25 276 4.8 20.9 0.00 0.00 0.00 39 1013.2
20260504203028 25 149 8.0 20.9 0.00 0.00 0.00 40 1013.5
20260504203020 25 236 8.0 20.9 0.00 0.00 0.00 40 1013.2
20260504202524 25 269 6.4 24.1 0.00 0.00 0.00 40 1013.5
20260504202507 25 141 8.0 24.1 0.00 0.00 0.00 40 1013.2
20260504202023 25 137 9.7 29.0 0.00 0.00 0.00 39 1013.6
20260504202004 25 181 9.7 29.0 0.00 0.00 0.00 39 1013.2
20260504201525 25 249 11.3 29.0 0.00 0.00 0.00 39 1013.5
20260504201512 25 262 11.3 29.0 0.00 0.00 0.00 39 1013.2
20260504201023 26 284 4.8 25.7 0.00 0.00 0.00 38 1013.5
20260504201014 25 105 4.8 25.7 0.00 0.00 0.00 39 1013.1
20260504200525 25 230 8.0 25.7 0.00 0.00 0.00 38 1013.5
20260504200503 25 296 9.7 25.7 0.00 0.00 0.00 37 1013.2
20260504200022 26 226 3.2 22.5 0.00 0.00 0.00 40 1013.6
20260504200012 26 243 3.2 22.5 0.00 0.00 0.00 39 1013.2
20260504195520 25 219 8.0 22.5 0.00 0.00 0.00 38 1013.6
20260504195508 25 149 9.7 22.5 0.00 0.00 0.00 38 1013.2
20260504195020 25 136 3.2 20.9 0.00 0.00 0.00 39 1013.7
20260504195004 25 243 4.8 20.9 0.00 0.00 0.00 38 1013.3
20260504194526 25 259 11.3 24.1 0.00 0.00 0.00 36 1013.9
20260504194514 25 268 11.3 24.1 0.00 0.00 0.00 36 1013.4
20260504194019 25 259 9.7 24.1 0.00 0.00 0.00 38 1013.9
20260504194006 25 233 9.7 24.1 0.00 0.00 0.00 38 1013.5
20260504193520 25 293 8.0 22.5 0.00 0.00 0.00 40 1013.9
20260504193505 25 287 9.7 22.5 0.00 0.00 0.00 39 1013.6
20260504193018 25 314 8.0 22.5 0.00 0.00 0.00 39 1013.7
20260504192516 25 237 8.0 20.9 0.00 0.00 0.00 40 1014.1
20260504192508 25 317 9.7 20.9 0.00 0.00 0.00 39 1013.8
20260504192016 25 304 9.7 20.9 0.00 0.00 0.00 41 1014.1
20260504192003 25 248 9.7 20.9 0.00 0.00 0.00 40 1013.8
20260504191525 25 303 11.3 27.4 0.00 0.00 0.00 39 1014.1
20260504191015 25 263 9.7 27.4 0.00 0.00 0.00 39 1014.2
20260504191006 25 316 11.3 27.4 0.00 0.00 0.00 38 1014.0
20260504190514 25 239 9.7 27.4 0.00 0.00 0.00 40 1014.4
20260504190503 25 198 11.3 27.4 0.00 0.00 0.00 39 1014.0
20260504190114 25 255 8.0 25.7 0.00 0.00 0.00 40 1014.4
20260504190018 25 302 9.7 25.7 0.00 0.00 0.00 40 1014.0
20260504185512 25 294 8.0 22.5 0.00 0.00 0.00 39 1014.5
20260504185503 25 232 9.7 22.5 0.00 0.00 0.00 39 1014.1
20260504185012 25 242 6.4 22.5 0.00 0.00 0.00 41 1014.5
20260504185005 25 122 6.4 22.5 0.00 0.00 0.00 40 1014.1
20260504184520 25 251 9.7 20.9 0.00 0.00 0.00 40 1014.3
20260504184516 25 249 8.0 17.7 0.00 0.00 0.00 41 1014.6